EW8956 Weather Reports


time (UTC)temp
C
wind
direction
speed
KPH
gust
KPH
rain 1hr
cm
rain 24hr
cm
rain mn
cm
humidity
%
barometer
mb
20260510073044 15 0 0.0 0.0 0.00 0.00 0.00 91 1013.1
20260510071556 15 0 0.0 0.0 0.00 0.00 0.00 91 1013.0
20260510070050 15 0 0.0 0.0 0.00 0.00 0.00 90 1012.8
20260510064551 15 0 0.0 0.0 0.00 0.00 0.00 90 1012.9
20260510063045 15 0 0.0 0.0 0.00 0.00 0.00 90 1012.9
20260510061554 15 0 0.0 0.0 0.00 0.00 0.00 89 1013.1
20260510060050 15 0 0.0 1.6 0.00 0.00 0.00 89 1013.1
20260510054550 16 0 0.0 0.0 0.00 0.00 0.00 88 1013.0
20260510053049 16 0 0.0 0.0 0.00 0.00 0.00 88 1013.2
20260510051551 16 0 0.0 0.0 0.00 0.00 0.00 87 1013.2
20260510050053 16 0 0.0 1.6 0.00 0.00 0.00 86 1013.3
20260510044550 16 0 0.0 1.6 0.00 0.00 0.00 86 1013.4
20260510043054 16 0 0.0 1.6 0.00 0.00 0.00 85 1013.3
20260510041550 16 0 0.0 1.6 0.00 0.00 0.00 84 1013.3
20260510040048 17 0 0.0 1.6 0.00 0.00 0.00 84 1013.3
20260510034543 17 0 0.0 1.6 0.00 0.00 0.00 83 1013.3
20260510033111 17 0 0.0 0.0 0.00 0.00 0.00 82 1013.5
20260510031551 17 0 0.0 1.6 0.00 0.00 0.00 83 1013.4
20260510030044 17 0 0.0 1.6 0.00 0.00 0.00 80 1013.3
20260510024546 18 0 0.0 1.6 0.00 0.00 0.00 80 1013.2
20260510023046 18 0 0.0 1.6 0.00 0.00 0.00 78 1013.2
20260510021545 18 224 0.0 3.2 0.00 0.00 0.00 77 1013.0
20260510020050 18 0 0.0 4.8 0.00 0.00 0.00 76 1013.0
20260510014544 18 203 0.0 3.2 0.00 0.00 0.00 75 1012.9
20260510013042 19 0 1.6 9.7 0.00 0.00 0.00 74 1012.5
20260510011552 19 188 0.0 6.4 0.00 0.00 0.00 73 1012.2
20260510010043 20 228 0.0 6.4 0.00 0.00 0.00 71 1011.9
20260510004550 20 0 0.0 6.4 0.00 0.00 0.00 70 1011.7
20260510003108 20 179 0.0 8.0 0.00 0.00 0.00 69 1011.5
20260510001543 20 222 0.0 4.8 0.00 0.00 0.00 68 1011.4
20260510000046 21 0 1.6 9.7 0.00 0.00 0.00 67 1011.3
20260509234557 21 150 0.0 9.7 0.00 0.00 0.00 66 1011.3
20260509233046 21 0 0.0 11.3 0.00 0.00 0.00 66 1011.1
20260509231553 21 0 1.6 9.7 0.00 0.00 0.00 65 1010.9
20260509230057 21 0 3.2 12.9 0.00 0.00 0.00 64 1010.9
20260509224548 22 225 1.6 11.3 0.00 0.00 0.00 64 1010.7
20260509223049 22 0 1.6 8.0 0.00 0.00 0.00 63 1010.5
20260509221548 22 0 0.0 12.9 0.00 0.00 0.00 61 1010.4
20260509220050 22 78 1.6 14.5 0.00 0.00 0.00 60 1010.5
20260509214540 22 240 1.6 19.3 0.00 0.00 0.00 60 1010.5
20260509213055 22 190 4.8 19.3 0.00 0.00 0.00 59 1010.4
20260509211543 22 186 4.8 16.1 0.00 0.00 0.00 58 1010.7
20260509210051 23 217 0.0 20.9 0.00 0.00 0.00 59 1010.3
20260509204542 23 240 1.6 12.9 0.00 0.00 0.00 58 1010.1
20260509203046 22 115 0.0 11.3 0.00 0.00 0.00 60 1010.6
20260509201547 22 187 1.6 16.1 0.00 0.00 0.00 60 1010.6
20260509200053 22 183 1.6 14.5 0.00 0.00 0.00 61 1010.7
20260509194549 22 311 3.2 12.9 0.00 0.00 0.00 63 1010.7
20260509193055 20 220 1.6 17.7 0.00 0.00 0.00 67 1011.1
20260509191554 20 220 3.2 14.5 0.00 0.00 0.00 66 1011.3
20260509190053 21 209 1.6 12.9 0.00 0.00 0.00 65 1011.2
20260509184550 21 0 0.0 19.3 0.00 0.00 0.00 64 1011.2
20260509183124 21 0 1.6 17.7 0.00 0.00 0.00 64 1011.2
20260509181609 20 215 6.4 19.3 0.00 0.00 0.00 65 1011.6
20260509180054 20 218 1.6 14.5 0.00 0.00 0.00 66 1011.8
20260509174547 20 163 1.6 8.0 0.00 0.00 0.00 65 1011.6
20260509173058 21 0 3.2 17.7 0.00 0.00 0.00 65 1011.6
20260509171558 21 223 6.4 19.3 0.00 0.00 0.00 62 1011.8
20260509170056 21 246 3.2 17.7 0.00 0.00 0.00 62 1011.9
20260509164548 20 150 4.8 19.3 0.00 0.00 0.00 67 1012.1
20260509163046 19 193 3.2 14.5 0.00 0.00 0.00 71 1012.6
20260509161544 19 0 1.6 16.1 0.00 0.00 0.00 71 1012.7
20260509160044 20 185 3.2 16.1 0.00 0.00 0.00 70 1012.8
20260509154554 18 221 1.6 9.7 0.00 0.00 0.00 75 1012.8
20260509153046 18 117 3.2 11.3 0.00 0.00 0.00 77 1012.8
20260509151550 17 209 0.0 6.4 0.00 0.00 0.00 77 1012.9
20260509150048 17 221 1.6 9.7 0.00 0.00 0.00 76 1012.8
20260509144543 17 180 1.6 9.7 0.00 0.00 0.00 76 1012.8
20260509143052 17 0 1.6 12.9 0.00 0.00 0.00 76 1012.9
20260509141554 17 135 3.2 14.5 0.00 0.00 0.00 74 1013.0
20260509140059 17 229 3.2 14.5 0.00 0.00 0.00 74 1013.3
20260509134544 16 174 1.6 11.3 0.00 0.00 0.00 74 1013.3
20260509133047 16 211 0.0 8.0 0.00 0.00 0.00 75 1013.7
20260509131540 16 0 1.6 11.3 0.00 0.00 0.00 73 1014.1
20260509130051 16 0 1.6 16.1 0.00 0.00 0.00 73 1014.3
20260509124546 15 0 0.0 6.4 0.00 0.00 0.00 74 1014.2
20260509123053 15 115 0.0 6.4 0.00 0.00 0.00 76 1014.0
20260509121545 13 0 0.0 8.0 0.00 0.00 0.00 80 1013.9
20260509120051 13 163 1.6 4.8 0.00 0.00 0.00 82 1014.0
20260509114548 12 0 0.0 6.4 0.00 0.00 0.00 86 1013.7
20260509113050 11 0 0.0 1.6 0.00 0.00 0.00 87 1013.7
20260509111551 11 0 0.0 1.6 0.00 0.00 0.00 90 1013.7
20260509110051 10 0 0.0 1.6 0.00 0.00 0.00 89 1013.7
20260509104554 10 0 0.0 0.0 0.00 0.00 0.00 87 1013.3
20260509103047 10 0 0.0 0.0 0.00 0.00 0.00 86 1013.1
20260509101555 10 0 0.0 0.0 0.00 0.00 0.00 85 1012.9
20260509100051 10 0 0.0 0.0 0.00 0.00 0.00 84 1012.9
20260509094543 10 0 0.0 1.6 0.00 0.00 0.00 86 1012.9
20260509093055 10 0 0.0 1.6 0.00 0.00 0.00 83 1012.9
20260509091548 10 0 0.0 1.6 0.00 0.00 0.00 81 1013.0
20260509090051 11 0 0.0 1.6 0.00 0.00 0.00 79 1013.2
20260509084554 11 0 0.0 1.6 0.00 0.00 0.00 77 1013.4
20260509083051 11 0 0.0 1.6 0.00 0.00 0.00 76 1013.2
20260509081546 12 0 0.0 1.6 0.00 0.00 0.00 73 1013.4
20260509080056 12 0 0.0 1.6 0.00 0.00 0.00 72 1013.4
20260509074544 12 0 0.0 1.6 0.00 0.00 0.00 70 1013.5